DW7361 Weather Reports


Display with metric or nautical units.
time (UTC)temp
F
wind
direction
speed
MPH
gust
MPH
rain 1hr
in
rain 24hr
in
rain mn
in
humidity
%
barometer
mb
20260503184502 59 268 2.0 8.0 0.00 0.00 0.00 34 1012.7
20260503183000 58 6 2.0 8.0 0.00 0.00 0.00 34 1012.9
20260503181600 59 318 1.0 7.0 0.00 0.00 0.00 38 1012.8
20260503174558 58 288 1.0 7.0 0.00 0.00 0.00 38 1012.8
20260503173113 58 285 2.0 9.0 0.00 0.00 0.00 37 1012.9
20260503171555 58 295 1.0 7.0 0.00 0.00 0.00 38 1013.1
20260503100109 44 257 0.0 0.0 0.00 0.00 0.00 61 1012.2
20260503081556 41 287 0.0 1.0 0.00 0.00 0.00 63 1011.1
20260503071557 40 142 0.0 0.0 0.00 0.00 0.00 68 1010.8
20260503054538 45 301 0.0 1.0 0.00 0.00 0.00 67 1011.1
20260503053028 46 302 0.0 1.0 0.00 0.00 0.00 67 1011.1
20260503051525 46 231 0.0 0.0 0.00 0.00 0.00 66 1011.2
20260503050022 47 231 0.0 0.0 0.00 0.00 0.00 64 1011.3
20260503044522 47 298 0.0 3.0 0.00 0.00 0.00 63 1011.5
20260503043019 47 252 0.0 0.0 0.00 0.00 0.00 63 1011.6
20260503041519 48 287 0.0 1.0 0.00 0.00 0.00 62 1011.7
20260503040016 48 300 0.0 1.0 0.00 0.00 0.00 62 1011.7
20260503034512 47 276 0.0 2.0 0.00 0.00 0.00 63 1011.8
20260503033007 47 269 0.0 1.0 0.00 0.00 0.00 64 1011.8
20260503031502 46 295 0.0 0.0 0.00 0.00 0.00 65 1011.8
20260503030058 46 295 0.0 0.0 0.00 0.00 0.00 67 1011.8
20260503024602 46 295 0.0 0.0 0.00 0.00 0.00 65 1011.8
20260503023050 47 295 0.0 0.0 0.00 0.00 0.00 64 1011.9
20260503021549 47 295 0.0 0.0 0.00 0.00 0.00 59 1011.9
20260503020049 48 295 0.0 0.0 0.00 0.00 0.00 57 1012.0
20260503014558 49 295 0.0 0.0 0.00 0.00 0.00 56 1011.8
20260503013035 50 295 0.0 0.0 0.00 0.00 0.00 54 1011.7
20260503011530 51 288 0.0 0.0 0.00 0.00 0.00 52 1011.7
20260503010022 52 283 0.0 3.0 0.00 0.00 0.00 53 1011.5
20260503004525 52 309 0.0 0.0 0.00 0.00 0.00 51 1011.3
20260503003014 52 309 0.0 2.0 0.00 0.00 0.00 49 1011.1
20260503001509 52 139 0.0 1.0 0.00 0.00 0.00 50 1011.1
20260503000004 53 308 0.0 0.0 0.00 0.00 0.00 48 1011.0
20260502234601 54 315 0.0 3.0 0.00 0.00 0.00 44 1010.8
20260502233056 54 340 0.0 3.0 0.00 0.00 0.00 44 1010.7
20260502231653 55 325 0.0 2.0 0.00 0.00 0.00 44 1010.6
20260502230048 56 256 0.0 3.0 0.00 0.00 0.00 42 1010.8
20260502224548 57 316 0.0 5.0 0.00 0.00 0.00 40 1010.7
20260502223041 60 271 0.0 4.0 0.00 0.00 0.00 41 1010.5
20260502221534 60 284 1.0 3.0 0.00 0.00 0.00 37 1010.5
20260502220029 58 290 0.0 4.0 0.00 0.00 0.00 39 1010.4
20260502214524 57 281 0.0 5.0 0.00 0.00 0.00 41 1010.5
20260502213020 59 76 1.0 5.0 0.00 0.00 0.00 40 1010.4
20260502211531 59 93 0.0 2.0 0.00 0.00 0.00 42 1010.3
20260502210016 59 291 0.0 3.0 0.00 0.00 0.00 39 1010.1
20260502204507 59 264 0.0 5.0 0.00 0.00 0.00 41 1009.9
20260502203002 59 292 0.0 3.0 0.00 0.00 0.00 43 1010.1
20260502201605 61 255 0.0 1.0 0.00 0.00 0.00 42 1010.1
20260502200055 60 98 0.0 1.0 0.00 0.00 0.00 41 1010.3
20260502194601 61 251 0.0 3.0 0.00 0.00 0.00 41 1010.5
20260502193045 61 143 0.0 2.0 0.00 0.00 0.00 46 1010.7
20260502191543 59 257 0.0 3.0 0.00 0.00 0.00 41 1011.0
20260502190041 59 274 0.0 4.0 0.00 0.00 0.00 42 1011.3